Weather Service Report


056 
ASUS44 KMEG 211310
RWRTN 
TENNESSEE HOURLY STATE WEATHER ROUNDUP
NATIONAL WEATHER SERVICE MEMPHIS TN
700 AM CST SAT JAN 21 2017

TNZ002-004-019-021-049-052-054-088>092-211400-
WEST TENNESSEE
  
CITY           SKY/WX    TMP DP  RH WIND       PRES   REMARKS
MEMPHIS INTL   CLOUDY    63  55  75 S13       29.65F                  
NWS MEMPHIS      N/A     64 N/A N/A MISG        N/A                   
JACKSON        MOCLDY    60  53  77 S7        29.68R                  
DYERSBURG      CLOUDY    63  52  67 SW7       29.66S                  
UNION CITY     MOCLDY    57  57 100 S5        29.65R                  
PARIS          MOCLDY    55  52  88 CALM      29.67S                  
HUNTINGDON     PTCLDY    57  54  88 SE9       29.69R                  
$$

TNZ008-025-027-028-033-062-065-066-211400-
NORTH MIDDLE TENNESSEE
  
CITY           SKY/WX    TMP DP  RH WIND       PRES   REMARKS
NASHVILLE      CLOUDY    58  54  86 S8        29.75R                  
PORTLAND       PTCLDY    59  55  88 S10       29.75R                  
CLARKSVILLE    CLOUDY    57  51  80 SE9       29.71R                  
SMYRNA         CLOUDY    57  54  89 SE7       29.77R                  
GALLATIN       CLEAR     52  52 100 CALM      29.78S                  
CROSSVILLE     MOCLDY    54  54 100 S5        29.83R FOG              
$$

TNZ061-075-076-078-094-096-097-211400-
SOUTH MIDDLE TENNESSEE
  
CITY           SKY/WX    TMP DP  RH WIND       PRES   REMARKS
TULLAHOMA      CLEAR     55  54  94 CALM      29.78S                  
WINCHESTER     MOCLDY    59  57  94 SE7       29.78S                  
MCMINNVILLE    CLEAR     52  52 100 CALM      29.78S                  
COLUMBIA       CLEAR    N/A N/A N/A CALM      29.74R                  
SHELBYVILLE    PTCLDY    61  57  88 SE5       29.78R                  
$$

TNZ017-018-042-046-047-211400-
NORTHEAST TENNESSEE
  
CITY           SKY/WX    TMP DP  RH WIND       PRES   REMARKS
TRI CITIES     FOG       42  42 100 CALM      29.85F VSB 1/2          
ELIZABETHTON   CLOUDY    46  45  93 NE5       29.86S                  
$$

TNZ012-013-036-069-073-074-211400-
CENTRAL EAST TENNESSEE
  
CITY           SKY/WX    TMP DP  RH WIND       PRES   REMARKS
KNOXVILLE      MOCLDY    49  47  93 NE5       29.83R                  
OAK RIDGE      MOCLDY    50  47  89 CALM      29.84F                  
GATLINBURG     CLEAR     43  43 100 CALM      29.84R                  
MORRISTOWN     MOCLDY    50  50 100 E3        29.84R                  
JACKSBORO      FOG       43  43 100 CALM      29.86R VSB 0            
$$

TNZ083-085-099-211400-
SOUTHEAST TENNESSEE
  
CITY           SKY/WX    TMP DP  RH WIND       PRES   REMARKS
CHATTANOOGA    CLOUDY    56  54  93 CALM      29.79F FOG              
$$

SKY/WX REPORTED AS FAIR MEANS FEW OR NO CLOUDS BELOW
12 THOUSAND FEET.

  


062 
ASUS44 KMEG 211310
RWRMEG
MEMPHIS CWA HOURLY WEATHER ROUNDUP
NATIONAL WEATHER SERVICE MEMPHIS TN
700 AM CST SAT JAN 21 2017

...WEST TENNESSEE...
  
CITY           SKY/WX    TMP DP  RH WIND       PRES   REMARKS
MEMPHIS INTL   CLOUDY    63  55  75 S13       29.65F                  
NWS MEMPHIS      N/A     64 N/A N/A MISG        N/A                   
JACKSON        MOCLDY    60  53  77 S7        29.68R                  
BOLIVAR        MOCLDY    59  55  88 S7        29.70S                  
DYERSBURG      CLOUDY    63  52  67 SW7       29.66S                  
UNION CITY     MOCLDY    57  57 100 S5        29.65R                  
PARIS          MOCLDY    55  52  88 CALM      29.67S                  
HUNTINGDON     PTCLDY    57  54  88 SE9       29.69R                  


...EASTERN ARKANSAS...
  
CITY           SKY/WX    TMP DP  RH WIND       PRES   REMARKS
JONESBORO      MOCLDY    54  52  93 S5        29.63S                  
WEST MEMPHIS   CLOUDY    57  56  96 S6        29.64F                  
BATESVILLE     CLOUDY    57  52  82 SW5       29.62S                  
NEWPORT        CLOUDY    51  50  96 MISG      29.63S                  
WALNUT RIDGE   MOCLDY    54  48  82 S13       29.61F                  
BLYTHEVILLE    MOCLDY    59  53  80 SW7       29.65S                  
SEARCY         PTCLDY    51  51 100 CALM      29.65R                  
STUTTGART      PTCLDY    57  48  72 S8        29.64R                  
PINE BLUFF     CLEAR     51  50  96 E6        29.62R                  
MONTICELLO     PTCLDY    54  53  97 CALM      29.64R                  


...NORTH MISSISSIPPI...
  
CITY           SKY/WX    TMP DP  RH WIND       PRES   REMARKS
TUPELO         CLOUDY    57  53  86 E12       29.73F                  
OXFORD         CLOUDY    55  50  82 E6        29.67F                  
BATESVILLE     CLOUDY    58  52  81 E5        29.65F                  
OLIVE BRANCH   CLOUDY   N/A N/A N/A S9        29.66                   
TUNICA         CLOUDY    57  54  88 S8        29.68R                  
CLARKSDALE     CLOUDY    61  57  88 SE6       29.66R                  
CORINTH        DRIZZLE   59  54  82 S8G15     29.74S                  
GREENWOOD      CLOUDY    59  52  77 SE14G24   29.62F                  
STARKVILLE     LGT RAIN  55  55 100 E10       29.77F                  
GOLDEN TRIANGL LGT RAIN  57  54  88 NW9       29.76R FOG              


...SOUTHEAST MISSOURI...
  
CITY           SKY/WX    TMP DP  RH WIND       PRES   REMARKS
KENNETT        MOCLDY    59  55  88 S7        29.63S                  
WEST PLAINS    PTCLDY    48  44  86 S6        29.59R                  
POPLAR BLUFF   CLOUDY    44  44 100 CALM      29.61S                  
CAPE GIRARDEAU CLOUDY    50  48  93 NE3       29.62R                  


...NORTHWEST ALABAMA...
  
CITY           SKY/WX    TMP DP  RH WIND       PRES   REMARKS
MUSCLE SHOALS  TSTM      61  56  83 S5        29.80R                  


...MIDDLE TENNESSEE...
  
CITY           SKY/WX    TMP DP  RH WIND       PRES   REMARKS
NASHVILLE      CLOUDY    58  54  86 S8        29.75R                  
CLARKSVILLE    CLOUDY    57  51  80 SE9       29.71R                  
COLUMBIA       CLEAR    N/A N/A N/A CALM      29.74R                  


...WESTERN KENTUCKY...
  
CITY           SKY/WX    TMP DP  RH WIND       PRES   REMARKS
PADUCAH        CLOUDY    58  50  75 S8        29.63R                  
FORT CAMPBELL  CLOUDY    55  53  94 SE7       29.70R                  


...CENTRAL ARKANSAS...
  
CITY           SKY/WX    TMP DP  RH WIND       PRES   REMARKS
LITTLE ROCK    MOCLDY    51  51 100 CALM      29.62R                  


SKY/WX REPORTED AS FAIR MEANS FEW OR NO CLOUDS BELOW
12 THOUSAND FEET.

  

Return to Home page


Western Regional Climate Center, wrcc@dri.edu